GW5815 Weather Reports


time (UTC)temp
C
wind
direction
speed
KPH
gust
KPH
rain 1hr
cm
rain 24hr
cm
rain mn
cm
humidity
%
barometer
mb
20260505025027 12 166 1.6 8.0 0.00 0.03 0.03 69 1011.3
20260505024536 12 159 3.2 8.0 0.00 0.03 0.03 69 1011.2
20260505024029 12 209 3.2 6.4 0.00 0.03 0.03 68 1011.3
20260505023529 12 174 1.6 9.7 0.00 0.03 0.03 68 1011.3
20260505023049 12 184 1.6 9.7 0.00 0.03 0.03 68 1011.3
20260505022528 12 150 1.6 8.0 0.00 0.03 0.03 67 1011.4
20260505022029 12 172 3.2 8.0 0.00 0.03 0.03 67 1011.4
20260505021537 12 172 3.2 11.3 0.00 0.03 0.03 66 1011.4
20260505021028 12 156 4.8 11.3 0.00 0.03 0.03 66 1011.5
20260505020529 12 191 3.2 9.7 0.00 0.03 0.03 66 1011.3
20260505020039 12 211 4.8 9.7 0.00 0.03 0.03 66 1011.4
20260505015529 12 194 4.8 8.0 0.00 0.03 0.03 65 1011.3
20260505015029 12 205 3.2 8.0 0.00 0.03 0.03 64 1011.3
20260505014538 13 158 3.2 9.7 0.00 0.03 0.03 64 1011.3
20260505014029 13 158 1.6 9.7 0.00 0.03 0.03 63 1011.3
20260505013527 13 158 1.6 9.7 0.00 0.03 0.03 63 1011.2
20260505013042 13 165 4.8 9.7 0.00 0.03 0.03 62 1011.1
20260505012528 13 154 1.6 6.4 0.00 0.03 0.03 61 1011.0
20260505012028 13 153 3.2 8.0 0.00 0.03 0.03 61 1011.0
20260505011543 13 192 4.8 11.3 0.00 0.03 0.03 60 1010.9
20260505011031 13 208 4.8 11.3 0.00 0.03 0.03 59 1010.8
20260505010528 13 144 4.8 11.3 0.00 0.03 0.03 59 1010.7
20260505005528 13 201 3.2 9.7 0.00 0.03 0.03 57 1010.5
20260505005028 13 160 3.2 9.7 0.00 0.03 0.03 57 1010.4
20260505004536 13 199 1.6 6.4 0.00 0.03 0.03 56 1010.3
20260505004028 14 143 1.6 8.0 0.00 0.03 0.03 56 1010.2
20260505003527 14 166 3.2 19.3 0.00 0.03 0.03 55 1010.1
20260505003041 14 160 3.2 19.3 0.00 0.03 0.03 55 1010.0
20260505002527 14 158 8.0 12.9 0.00 0.03 0.03 55 1010.0
20260505002027 14 210 4.8 12.9 0.00 0.03 0.03 54 1009.8
20260505001543 15 151 4.8 14.5 0.00 0.03 0.03 54 1009.7
20260505001028 15 150 6.4 14.5 0.00 0.03 0.03 53 1009.6
20260505000528 15 188 4.8 12.9 0.00 0.03 0.03 53 1009.5
20260505000046 15 158 4.8 12.9 0.00 0.03 0.03 52 1009.5
20260504235533 15 201 4.8 12.9 0.00 0.03 0.03 51 1009.4
20260504235028 15 165 1.6 9.7 0.00 0.03 0.03 51 1009.3
20260504234539 15 145 4.8 9.7 0.00 0.03 0.03 50 1009.2
20260504234029 16 176 4.8 9.7 0.00 0.03 0.03 49 1009.1
20260504233529 16 157 3.2 9.7 0.00 0.03 0.03 49 1009.0
20260504233036 16 243 3.2 14.5 0.00 0.03 0.03 48 1008.9
20260504232529 16 198 6.4 14.5 0.00 0.03 0.03 48 1009.0
20260504232027 16 149 8.0 17.7 0.00 0.03 0.03 48 1008.9
20260504231546 16 149 4.8 17.7 0.00 0.03 0.03 48 1008.9
20260504231027 16 163 1.6 17.7 0.00 0.03 0.03 48 1008.8
20260504230527 17 209 4.8 17.7 0.00 0.03 0.03 47 1008.8
20260504230042 17 169 6.4 16.1 0.00 0.03 0.03 47 1008.7
20260504225528 17 193 6.4 12.9 0.00 0.03 0.03 47 1008.5
20260504225027 17 176 4.8 12.9 0.00 0.03 0.03 47 1008.6
20260504224543 17 162 3.2 12.9 0.00 0.03 0.03 47 1008.6
20260504224027 17 207 6.4 19.3 0.00 0.03 0.03 46 1008.5
20260504223528 17 161 6.4 22.5 0.00 0.03 0.03 46 1008.5
20260504223038 17 176 4.8 22.5 0.00 0.03 0.03 46 1008.4
20260504222527 18 199 6.4 17.7 0.00 0.03 0.03 45 1008.4
20260504222027 18 193 3.2 14.5 0.00 0.03 0.03 45 1008.3
20260504221548 18 181 6.4 17.7 0.00 0.03 0.03 45 1008.3
20260504221028 18 195 6.4 17.7 0.00 0.03 0.03 45 1008.4
20260504220531 18 164 9.7 24.1 0.00 0.03 0.03 44 1008.3
20260504220038 18 166 11.3 24.1 0.00 0.03 0.03 43 1008.3
20260504215527 18 129 9.7 19.3 0.00 0.03 0.03 43 1008.4
20260504215027 18 193 9.7 19.3 0.00 0.03 0.03 43 1008.3
20260504214543 18 196 6.4 16.1 0.00 0.03 0.03 43 1008.2
20260504214028 18 220 6.4 19.3 0.00 0.03 0.03 42 1008.2
20260504213528 19 172 6.4 19.3 0.00 0.03 0.03 42 1008.2
20260504213058 19 152 8.0 19.3 0.03 0.03 0.03 40 1008.1
20260504212527 19 238 8.0 19.3 0.03 0.03 0.03 39 1008.1
20260504212028 20 254 4.8 12.9 0.03 0.03 0.03 39 1008.1
20260504211544 20 330 4.8 17.7 0.03 0.03 0.03 39 1008.1
20260504211028 20 196 8.0 17.7 0.03 0.03 0.03 39 1008.0
20260504210528 20 245 6.4 16.1 0.03 0.03 0.03 38 1008.0
20260504210038 20 174 4.8 16.1 0.03 0.03 0.03 37 1008.0
20260504205528 20 210 4.8 17.7 0.03 0.03 0.03 37 1007.8
20260504205027 20 188 8.0 17.7 0.03 0.03 0.03 36 1007.8
20260504204536 21 276 6.4 14.5 0.03 0.03 0.03 34 1007.7
20260504204027 21 158 1.6 14.5 0.03 0.03 0.03 34 1007.7
20260504203529 21 176 3.2 14.5 0.03 0.03 0.03 36 1007.8
20260504203046 21 190 4.8 14.5 0.00 0.00 0.00 34 1007.8
20260504202528 21 314 1.6 22.5 0.00 0.00 0.00 33 1007.7
20260504202027 21 323 1.6 22.5 0.00 0.00 0.00 33 1007.8
20260504201535 21 187 8.0 22.5 0.00 0.00 0.00 33 1007.8
20260504201027 21 187 3.2 9.7 0.00 0.00 0.00 34 1007.9
20260504200528 21 187 1.6 9.7 0.00 0.00 0.00 34 1007.8
20260504200041 21 187 3.2 9.7 0.00 0.00 0.00 33 1007.8
20260504195528 21 140 3.2 8.0 0.00 0.00 0.00 34 1007.8
20260504195027 21 154 1.6 17.7 0.00 0.00 0.00 34 1007.8
20260504194542 21 263 4.8 17.7 0.00 0.00 0.00 32 1007.8
20260504194028 21 187 4.8 11.3 0.00 0.00 0.00 34 1007.9
20260504193531 21 187 1.6 6.4 0.00 0.00 0.00 32 1007.9
20260504193036 21 159 1.6 11.3 0.00 0.00 0.00 31 1007.9
20260504192527 21 171 1.6 24.1 0.00 0.00 0.00 33 1008.0
20260504192045 21 155 6.4 24.1 0.00 0.00 0.00 33 1007.8
20260504191539 21 134 9.7 24.1 0.00 0.00 0.00 31 1007.8
20260504191028 21 155 4.8 16.1 0.00 0.00 0.00 33 1007.9
20260504190528 21 187 4.8 14.5 0.00 0.00 0.00 31 1007.9
20260504190037 21 187 1.6 16.1 0.00 0.00 0.00 31 1007.9
20260504185527 21 187 3.2 16.1 0.00 0.00 0.00 32 1008.0
20260504185030 21 187 3.2 14.5 0.00 0.00 0.00 34 1008.0
20260504184540 20 243 6.4 17.7 0.00 0.00 0.00 33 1008.1
20260504184030 20 158 4.8 17.7 0.00 0.00 0.00 33 1008.1
20260504183527 20 188 8.0 17.7 0.00 0.00 0.00 32 1008.2
20260504183039 20 181 8.0 19.3 0.00 0.00 0.00 32 1008.1
20260504182528 20 219 8.0 19.3 0.00 0.00 0.00 33 1008.3
20260504182028 20 178 6.4 24.1 0.00 0.00 0.00 32 1008.2
20260504181538 20 165 8.0 24.1 0.00 0.00 0.00 33 1008.3
20260504181033 20 210 8.0 16.1 0.00 0.00 0.00 32 1008.3
20260504180528 20 222 6.4 19.3 0.00 0.00 0.00 32 1008.3
20260504180045 20 182 6.4 19.3 0.00 0.00 0.00 33 1008.3
20260504175530 20 166 6.4 20.9 0.00 0.00 0.00 33 1008.5
20260504175027 20 180 9.7 22.5 0.00 0.00 0.00 32 1008.6
20260504174535 20 244 6.4 22.5 0.00 0.00 0.00 32 1008.6
20260504174029 20 133 11.3 22.5 0.00 0.00 0.00 32 1008.5
20260504173527 20 120 6.4 20.9 0.00 0.00 0.00 33 1008.7
20260504173037 20 272 6.4 20.9 0.00 0.00 0.00 32 1008.6
20260504172527 20 294 4.8 20.9 0.00 0.00 0.00 33 1008.5
20260504172028 20 228 6.4 20.9 0.00 0.00 0.00 32 1008.4
20260504171537 20 190 8.0 17.7 0.00 0.00 0.00 33 1008.5
20260504171028 20 184 6.4 17.7 0.00 0.00 0.00 32 1008.6
20260504170527 20 180 6.4 19.3 0.00 0.00 0.00 32 1008.8
20260504151030 18 197 4.8 17.7 0.00 0.00 0.00 36 1010.0
20260504150527 18 300 4.8 17.7 0.00 0.00 0.00 37 1010.0
20260504141029 16 249 4.8 14.5 0.00 0.00 0.00 41 1010.5
20260504140527 16 271 4.8 19.3 0.00 0.00 0.00 41 1010.5
20260504130528 14 221 3.2 11.3 0.00 0.00 0.00 46 1011.1
20260504110528 8 200 1.6 11.3 0.00 0.00 0.00 57 1011.2
20260504100527 6 0 0.0 0.0 0.00 0.00 0.00 61 1011.2
20260504081538 7 194 0.0 0.0 0.00 0.00 0.00 53 1010.8
20260504081031 7 0 0.0 0.0 0.00 0.00 0.00 53 1010.9
20260504080528 7 0 0.0 0.0 0.00 0.00 0.00 52 1010.9
20260504050531 6 0 0.0 1.6 0.00 0.00 0.00 55 1010.7
20260504045530 6 0 0.0 1.6 0.00 0.00 0.00 55 1010.9
20260504045028 6 0 0.0 0.0 0.00 0.00 0.00 55 1010.8
20260504044543 6 259 0.0 0.0 0.00 0.00 0.00 56 1010.8
20260504044029 6 255 0.0 1.6 0.00 0.00 0.00 55 1010.8
20260504043528 6 0 0.0 1.6 0.00 0.00 0.00 55 1010.8
20260504043039 6 0 0.0 1.6 0.00 0.00 0.00 56 1010.8
20260504042529 6 261 0.0 3.2 0.00 0.00 0.00 55 1010.8
20260504042029 6 260 0.0 3.2 0.00 0.00 0.00 55 1010.7
20260504041538 6 264 0.0 1.6 0.00 0.00 0.00 55 1010.8
20260504041028 6 0 0.0 3.2 0.00 0.00 0.00 54 1010.6
20260504040528 6 0 0.0 3.2 0.00 0.00 0.00 54 1010.7
20260504040100 6 0 0.0 4.8 0.00 0.00 0.00 53 1010.6
20260504035528 6 0 0.0 4.8 0.00 0.00 0.00 53 1010.5
20260504035028 6 241 0.0 4.8 0.00 0.00 0.00 53 1010.4
20260504034540 6 257 0.0 1.6 0.00 0.00 0.00 54 1010.5
20260504034028 6 0 0.0 1.6 0.00 0.00 0.00 55 1010.4
20260504033529 6 259 0.0 1.6 0.00 0.00 0.00 55 1010.4
20260504033043 6 0 0.0 0.0 0.00 0.00 0.00 56 1010.4
20260504032534 6 0 0.0 1.6 0.00 0.00 0.00 57 1010.4
20260504032032 5 0 0.0 1.6 0.00 0.00 0.00 56 1010.3
20260504031541 5 214 0.0 1.6 0.00 0.00 0.00 58 1010.4
20260504031028 5 0 0.0 1.6 0.00 0.00 0.00 58 1010.3
20260504030528 5 214 0.0 1.6 0.00 0.00 0.00 58 1010.2
20260504030038 5 0 0.0 1.6 0.00 0.00 0.00 58 1010.3
20260504025526 5 0 0.0 1.6 0.00 0.00 0.00 58 1010.2